シェパード-ソーレン彗星

485P/Sheppard-Tholen (2005)

English version
Home page
Updated on May 26, 2024

---------------------------------------------------------------------

・ プロフィール

符号 485P/2006 AH2
発見日 2006年1月2日
発見光度 20.3等
発見者 Mt. Lemmon Survey

・ 軌道要素

                    Epoch = 2005 Sept.27.0 TT
     T = 2005 Oct. 12.17657 TT        Peri. = 196.18226
     e = 0.4171851                    Node  = 261.87312 2000.0
     q = 4.0019333 AU                 Incl. =  10.00693
       a =  6.8665598 AU   n = 0.05477662   P =  17.99 years

・ 光度変化

        m1 = 12.0 + 5 logΔ + 10.0 log r

---------------------------------------------------------------------

軌道要素は、CBET 5387に掲載されたものです。
光度グラフはComet for Windowsで作成したものです。

---------------------------------------------------------------------

Copyright(C) Seiichi Yoshida (comet@aerith.net). All rights reserved.